Hourly Data Report for July 14, 2021

FLIN FLON
MANITOBA
Current Station Operator: ECCC - MSC

54°41'00.000" N
101°41'00.000" W
303.90 m
5050919
71954
WFO

Download Data

Hourly Data (July 2021)
Hourly Data Report for July 14, 2021
TIME
LST
Temp Definition
°C
Dew Point Definition
°C
Rel Hum Definition
%
Precip. Amount Definition
mm

Wind Dir Definition
10's deg

Wind Spd Definition
km/h
Visibility Definition
km
Stn Press Definition
kPa
Hmdx Definition


Wind Chill Definition


Weather Definition


00:00 17.6 13.3 76 0.0 6 5   98.24     LegendNANA
01:00 15.5 12.8 84 0.0 23 1   98.23     LegendNANA
02:00 13.9 10.8 82 0.0   0   98.21     LegendNANA
03:00 13.3 11.5 89 0.0   0   98.19     LegendNANA
04:00 13.3 12.6 95 0.0 1 5   98.19     LegendNANA
05:00 13.3 12.6 95 0.0 0 1   98.20     LegendNANA
06:00 13.1 12.4 95 0.0   0   98.21     LegendNANA
07:00 16.5 14.4 87 0.0   0   98.22     LegendNANA
08:00 20.3 14.1 67 0.0 21 1   98.20     LegendNANA
09:00 21.9 13.1 58 0.0 17 5   98.17 25   LegendNANA
10:00 23.9 11.3 45 0.0 17 6   98.15 26   LegendNANA
11:00 24.3 8.5 37 0.0 18 10   98.11 25   LegendNANA
12:00 24.9 9.1 37 0.0 17 11   98.08 26   LegendNANA
13:00 25.1 7.8 33 0.0 18 5   98.03 25   LegendNANA
14:00 26.3 10.2 36 0.0 20 13   97.99 28   LegendNANA
15:00 25.8 9.2 35 0.0 18 12   97.93 27   LegendNANA
16:00 25.9 8.0 32 0.0 20 14   97.89 26   LegendNANA
17:00 25.7 10.2 38 0.0 20 13   97.83 27   LegendNANA
18:00 25.7 7.8 32 0.0 21 15   97.75 26   LegendNANA
19:00 24.9 9.8 38 0.0 21 14   97.73 26   LegendNANA
20:00 23.4 12.5 50 0.0 22 9   97.71 26   LegendNANA
21:00 22.0 13.2 57 0.0 20 4   97.70 25   LegendNANA
22:00 20.7 14.0 66 0.0 20 5   97.70     LegendNANA
23:00 21.2 14.3 65 0.0 19 12   97.67 25   LegendNANA

Notes on Data Quality.

Legend

  • E = Estimated
  • M = Missing
  • NA = Not Available*
  • [empty] = Indicates an unobserved value
Date modified: